DAL210 KSJC-KLAX

Flight info

Callsign DAL210
Flight time 0h 55m
Altitude 35000
Route SPTNS1 VLREE EBAYE BURGL IRNMN2
Aircraft A319/M-SDE3FGHIRWY/LB1

Departure

Time 2026-05-05 04:55
Airport Norman Y. Mineta San Jose International Airport (KSJC)

Arrival

Time 2026-05-05 05:50
Airport Los Angeles International Airport (KLAX)
Time Latitude Longitude Altitude Speed Heading
2026-05-05 04:40 37.36375 -121.92391 52 ft 0 kts 50°
2026-05-05 04:47 37.36374 -121.92391 52 ft 1 kts 50°
2026-05-05 04:48 37.36359 -121.92414 51 ft 4 kts 49°
2026-05-05 04:48 37.36343 -121.92441 52 ft 4 kts 60°
2026-05-05 04:48 37.36334 -121.92470 52 ft 4 kts 95°
2026-05-05 04:48 37.36339 -121.92489 52 ft 0 kts 138°
2026-05-05 04:50 37.36337 -121.92486 52 ft 2 kts 138°
2026-05-05 04:51 37.36281 -121.92424 55 ft 10 kts 138°
2026-05-05 04:51 37.36251 -121.92390 52 ft 11 kts 138°
2026-05-05 04:51 37.36153 -121.92284 52 ft 22 kts 139°
2026-05-05 04:51 37.36038 -121.92159 56 ft 22 kts 139°
2026-05-05 04:52 37.35918 -121.92028 53 ft 23 kts 139°
2026-05-05 04:52 37.35791 -121.91890 57 ft 25 kts 139°
2026-05-05 04:52 37.35659 -121.91745 59 ft 26 kts 139°
2026-05-05 04:52 37.35524 -121.91595 58 ft 27 kts 139°
2026-05-05 04:53 37.35403 -121.91463 57 ft 13 kts 139°
2026-05-05 04:53 37.35334 -121.91423 56 ft 12 kts 192°
2026-05-05 04:53 37.35302 -121.91454 57 ft 11 kts 225°
2026-05-05 04:53 37.35213 -121.91582 58 ft 24 kts 229°
2026-05-05 04:54 37.35150 -121.91766 56 ft 25 kts 302°
2026-05-05 04:54 37.35295 -121.91926 55 ft 43 kts 320°
2026-05-05 04:54 37.35762 -121.92434 53 ft 134 kts 319°
2026-05-05 04:54 37.36580 -121.93338 458 ft 166 kts 319°
2026-05-05 04:55 37.37448 -121.94296 1262 ft 165 kts 318°
2026-05-05 04:55 37.38311 -121.95239 1997 ft 167 kts 317°
2026-05-05 04:55 37.39248 -121.96262 2437 ft 189 kts 317°
2026-05-05 04:55 37.40329 -121.97375 2842 ft 213 kts 326°
2026-05-05 04:56 37.41863 -121.97754 3268 ft 245 kts
2026-05-05 04:56 37.43427 -121.96721 3917 ft 267 kts 47°
2026-05-05 04:56 37.44265 -121.94630 4728 ft 274 kts 82°
2026-05-05 04:56 37.44096 -121.92303 4996 ft 267 kts 116°
2026-05-05 04:57 37.42934 -121.90550 5790 ft 265 kts 143°
2026-05-05 04:57 37.41465 -121.89115 6856 ft 268 kts 144°
2026-05-05 04:57 37.39966 -121.87668 7796 ft 273 kts 144°
2026-05-05 04:57 37.38436 -121.86197 8741 ft 279 kts 143°
2026-05-05 04:58 37.36877 -121.84684 9641 ft 287 kts 139°
2026-05-05 04:58 37.35435 -121.82951 10355 ft 299 kts 132°
2026-05-05 04:58 37.34005 -121.80914 10729 ft 321 kts 128°
2026-05-05 04:58 37.32546 -121.78729 11419 ft 330 kts 131°
2026-05-05 04:59 37.30914 -121.76672 12237 ft 335 kts 134°
2026-05-05 04:59 37.29208 -121.74635 13055 ft 340 kts 135°
2026-05-05 04:59 37.27452 -121.72603 13862 ft 345 kts 136°
2026-05-05 04:59 37.25662 -121.70570 14555 ft 349 kts 136°
2026-05-05 05:00 37.23847 -121.68528 15302 ft 352 kts 135°
2026-05-05 05:00 37.22034 -121.66493 16071 ft 353 kts 135°
2026-05-05 05:00 37.20198 -121.64428 16828 ft 356 kts 134°
2026-05-05 05:00 37.18346 -121.62338 17577 ft 358 kts 134°
2026-05-05 05:01 37.16484 -121.60236 18313 ft 361 kts 134°
2026-05-05 05:01 37.14612 -121.58121 18938 ft 364 kts 134°
2026-05-05 05:01 37.12724 -121.55988 19579 ft 367 kts 133°
2026-05-05 05:01 37.10835 -121.53857 20199 ft 370 kts 133°
2026-05-05 05:02 37.08909 -121.51685 20801 ft 373 kts 133°
2026-05-05 05:02 37.06967 -121.49499 21409 ft 376 kts 133°
2026-05-05 05:02 37.04994 -121.47301 22003 ft 380 kts 133°
2026-05-05 05:02 37.02984 -121.45126 22607 ft 384 kts 134°
2026-05-05 05:03 37.00960 -121.42977 23192 ft 388 kts 134°
2026-05-05 05:03 36.98882 -121.40788 23756 ft 391 kts 134°
2026-05-05 05:03 36.96784 -121.38581 24224 ft 395 kts 134°
2026-05-05 05:03 36.94678 -121.36359 24710 ft 397 kts 133°
2026-05-05 05:04 36.92563 -121.34120 25217 ft 400 kts 133°
2026-05-05 05:04 36.90433 -121.31858 25732 ft 400 kts 133°
2026-05-05 05:04 36.88332 -121.29620 26213 ft 403 kts 132°
2026-05-05 05:04 36.86187 -121.27335 26691 ft 404 kts 132°
2026-05-05 05:05 36.84040 -121.25052 27127 ft 406 kts 132°
2026-05-05 05:05 36.81868 -121.22745 27509 ft 410 kts 132°
2026-05-05 05:05 36.79688 -121.20431 27937 ft 413 kts 132°
2026-05-05 05:05 36.77486 -121.18096 28348 ft 416 kts 131°
2026-05-05 05:06 36.75277 -121.15758 28878 ft 417 kts 131°
2026-05-05 05:06 36.73087 -121.13444 29342 ft 418 kts 131°
2026-05-05 05:06 36.70858 -121.11089 29777 ft 420 kts 131°
2026-05-05 05:06 36.68620 -121.08729 30179 ft 423 kts 131°
2026-05-05 05:07 36.66368 -121.06356 30498 ft 426 kts 131°
2026-05-05 05:07 36.64095 -121.03959 30801 ft 429 kts 132°
2026-05-05 05:07 36.61803 -121.01542 31095 ft 433 kts 132°
2026-05-05 05:07 36.59522 -120.99151 31414 ft 436 kts 133°
2026-05-05 05:08 36.57168 -120.96732 31722 ft 440 kts 134°
2026-05-05 05:08 36.54787 -120.94318 32052 ft 441 kts 135°
2026-05-05 05:08 36.52398 -120.91909 32401 ft 443 kts 136°
2026-05-05 05:08 36.49995 -120.89487 32750 ft 444 kts 136°
2026-05-05 05:09 36.47586 -120.87056 33115 ft 446 kts 137°
2026-05-05 05:09 36.45209 -120.84654 33465 ft 447 kts 137°
2026-05-05 05:09 36.42790 -120.82204 33825 ft 448 kts 137°
2026-05-05 05:09 36.40365 -120.79748 34153 ft 449 kts 138°
2026-05-05 05:10 36.37936 -120.77288 34460 ft 450 kts 138°
2026-05-05 05:10 36.35501 -120.74823 34778 ft 450 kts 139°
2026-05-05 05:10 36.33098 -120.72390 34986 ft 450 kts 139°
2026-05-05 05:11 36.28301 -120.67548 35045 ft 437 kts 139°
2026-05-05 05:11 36.23590 -120.62804 35046 ft 434 kts 139°
2026-05-05 05:12 36.18924 -120.58107 35042 ft 434 kts 139°
2026-05-05 05:12 36.14225 -120.53387 35041 ft 434 kts 139°
2026-05-05 05:13 36.09536 -120.48681 35041 ft 434 kts 140°
2026-05-05 05:13 36.04865 -120.44007 35041 ft 434 kts 140°
2026-05-05 05:14 36.00161 -120.39310 35030 ft 433 kts 141°
2026-05-05 05:14 35.95461 -120.34622 35034 ft 433 kts 141°
2026-05-05 05:15 35.90803 -120.29978 35037 ft 433 kts 141°
2026-05-05 05:15 35.86035 -120.25429 35028 ft 432 kts 148°
2026-05-05 05:16 35.80909 -120.21563 35026 ft 432 kts 149°
2026-05-05 05:16 35.75805 -120.17720 35029 ft 432 kts 149°
2026-05-05 05:17 35.70670 -120.13850 35025 ft 432 kts 150°
2026-05-05 05:17 35.65566 -120.10003 35022 ft 431 kts 150°
2026-05-05 05:18 35.60455 -120.06141 35025 ft 431 kts 150°
2026-05-05 05:18 35.55339 -120.02275 35019 ft 430 kts 150°
2026-05-05 05:19 35.50251 -119.98445 35027 ft 430 kts 150°
2026-05-05 05:19 35.45972 -119.95230 35029 ft 430 kts 150°
2026-05-05 05:20 35.40868 -119.91400 35023 ft 430 kts 150°
2026-05-05 05:20 35.37959 -119.89222 35021 ft 430 kts 151°
2026-05-05 05:21 35.33103 -119.85934 34949 ft 434 kts 152°
2026-05-05 05:21 35.30526 -119.83978 34716 ft 435 kts 150°
2026-05-05 05:21 35.28044 -119.81849 34473 ft 435 kts 143°
2026-05-05 05:21 35.25752 -119.79497 34247 ft 433 kts 143°
2026-05-05 05:22 35.23408 -119.77191 34016 ft 430 kts 144°
2026-05-05 05:22 35.21043 -119.74955 33750 ft 428 kts 146°
2026-05-05 05:22 35.18672 -119.72767 33485 ft 426 kts 146°
2026-05-05 05:22 35.16297 -119.70599 33203 ft 424 kts 147°
2026-05-05 05:23 35.13932 -119.68435 32946 ft 422 kts 146°
2026-05-05 05:23 35.11624 -119.66309 32692 ft 420 kts 146°
2026-05-05 05:23 35.09295 -119.64153 32431 ft 418 kts 146°
2026-05-05 05:23 35.06985 -119.62003 32177 ft 417 kts 146°
2026-05-05 05:24 35.04688 -119.59857 31850 ft 413 kts 146°
2026-05-05 05:24 35.02417 -119.57733 31330 ft 410 kts 146°
2026-05-05 05:24 35.00157 -119.55624 30836 ft 408 kts 146°
2026-05-05 05:24 34.97901 -119.53526 30339 ft 406 kts 147°
2026-05-05 05:25 34.95677 -119.51467 29819 ft 404 kts 147°
2026-05-05 05:25 34.93442 -119.49401 29344 ft 400 kts 147°
2026-05-05 05:25 34.91226 -119.47352 28868 ft 396 kts 147°
2026-05-05 05:25 34.89032 -119.45353 28459 ft 391 kts 148°
2026-05-05 05:26 34.86872 -119.43419 28050 ft 388 kts 148°
2026-05-05 05:26 34.84698 -119.41485 27652 ft 384 kts 149°
2026-05-05 05:26 34.82541 -119.39569 27237 ft 381 kts 149°
2026-05-05 05:26 34.80408 -119.37672 26844 ft 378 kts 149°
2026-05-05 05:27 34.78289 -119.35783 26438 ft 375 kts 149°
2026-05-05 05:27 34.76189 -119.33911 26042 ft 373 kts 149°
2026-05-05 05:27 34.72024 -119.30215 25264 ft 367 kts 149°
2026-05-05 05:28 34.69979 -119.28428 24877 ft 365 kts 149°
2026-05-05 05:28 34.67917 -119.26639 24498 ft 362 kts 149°
2026-05-05 05:28 34.65879 -119.24871 24103 ft 360 kts 149°
2026-05-05 05:28 34.63848 -119.23108 23705 ft 357 kts 149°
2026-05-05 05:29 34.61822 -119.21360 23188 ft 355 kts 149°
2026-05-05 05:29 34.59808 -119.19628 22734 ft 353 kts 149°
2026-05-05 05:29 34.57830 -119.17930 22298 ft 350 kts 149°
2026-05-05 05:29 34.55851 -119.16225 21865 ft 348 kts 149°
2026-05-05 05:30 34.53896 -119.14514 21424 ft 346 kts 148°
2026-05-05 05:30 34.51957 -119.12795 20980 ft 344 kts 148°
2026-05-05 05:30 34.50030 -119.11079 20545 ft 343 kts 148°
2026-05-05 05:30 34.48104 -119.09363 20118 ft 342 kts 148°
2026-05-05 05:31 34.46182 -119.07657 19688 ft 341 kts 148°
2026-05-05 05:31 34.44261 -119.05957 19254 ft 341 kts 148°
2026-05-05 05:31 34.42349 -119.04276 18857 ft 339 kts 148°
2026-05-05 05:31 34.40463 -119.02638 18518 ft 336 kts 148°
2026-05-05 05:32 34.38553 -119.00992 18063 ft 336 kts 148°
2026-05-05 05:32 34.36650 -118.99351 17580 ft 335 kts 148°
2026-05-05 05:32 34.34761 -118.97718 17247 ft 331 kts 148°
2026-05-05 05:32 34.32883 -118.96076 16773 ft 332 kts 147°
2026-05-05 05:33 34.31060 -118.94435 16476 ft 327 kts 147°
2026-05-05 05:33 34.29245 -118.92778 16053 ft 327 kts 147°
2026-05-05 05:33 34.27426 -118.91114 15663 ft 326 kts 147°
2026-05-05 05:33 34.25619 -118.89465 15260 ft 325 kts 147°
2026-05-05 05:34 34.23822 -118.87821 14890 ft 324 kts 146°
2026-05-05 05:34 34.22032 -118.86174 14521 ft 323 kts 146°
2026-05-05 05:34 34.20242 -118.84525 14161 ft 322 kts 146°
2026-05-05 05:34 34.18487 -118.82912 13818 ft 321 kts 146°
2026-05-05 05:35 34.16722 -118.81292 13487 ft 317 kts 146°
2026-05-05 05:35 34.15014 -118.79607 13138 ft 316 kts 142°
2026-05-05 05:35 34.13371 -118.77851 12768 ft 314 kts 140°
2026-05-05 05:35 34.11770 -118.76074 12386 ft 313 kts 140°
2026-05-05 05:36 34.10173 -118.74285 12029 ft 311 kts 140°
2026-05-05 05:36 34.08604 -118.72540 11664 ft 309 kts 140°
2026-05-05 05:36 34.07021 -118.70792 11294 ft 307 kts 140°
2026-05-05 05:36 34.05462 -118.69080 11121 ft 298 kts 140°
2026-05-05 05:37 34.04026 -118.67294 10849 ft 296 kts 128°
2026-05-05 05:37 34.03042 -118.65115 10573 ft 295 kts 112°
2026-05-05 05:37 34.02609 -118.62739 10289 ft 295 kts 98°
2026-05-05 05:37 34.02390 -118.60275 9958 ft 293 kts 98°
2026-05-05 05:38 34.02165 -118.57846 9590 ft 291 kts 98°
2026-05-05 05:38 34.01941 -118.55429 9211 ft 288 kts 98°
2026-05-05 05:38 34.01717 -118.53068 8838 ft 286 kts 98°
2026-05-05 05:38 34.01485 -118.50661 8173 ft 294 kts 98°
2026-05-05 05:39 34.01248 -118.48193 7702 ft 295 kts 98°
2026-05-05 05:39 34.01089 -118.45770 7534 ft 285 kts 89°
2026-05-05 05:39 34.01390 -118.43453 7196 ft 282 kts 79°
2026-05-05 05:39 34.01790 -118.41140 6824 ft 280 kts 79°
2026-05-05 05:40 34.02190 -118.38849 6474 ft 277 kts 79°
2026-05-05 05:40 34.02344 -118.37967 6341 ft 275 kts 79°
2026-05-05 05:40 34.02729 -118.35740 6023 ft 270 kts 81°
2026-05-05 05:40 34.03019 -118.33568 5950 ft 255 kts 83°
2026-05-05 05:41 34.03239 -118.31509 5887 ft 241 kts 85°
2026-05-05 05:41 34.03435 -118.29556 5828 ft 228 kts 84°
2026-05-05 05:41 34.03627 -118.27668 5739 ft 226 kts 84°
2026-05-05 05:41 34.03819 -118.25789 5593 ft 225 kts 84°
2026-05-05 05:42 34.04015 -118.23915 5431 ft 225 kts 84°
2026-05-05 05:42 34.04213 -118.22049 5273 ft 224 kts 84°
2026-05-05 05:42 34.04415 -118.20197 5122 ft 222 kts 84°
2026-05-05 05:42 34.04617 -118.18370 4995 ft 223 kts 84°
2026-05-05 05:43 34.04821 -118.16513 4879 ft 223 kts 83°
2026-05-05 05:43 34.05015 -118.14664 4781 ft 222 kts 87°
2026-05-05 05:43 34.04779 -118.12859 4635 ft 217 kts 116°
2026-05-05 05:43 34.03886 -118.11434 4568 ft 213 kts 144°
2026-05-05 05:44 34.02582 -118.10652 4518 ft 209 kts 168°
2026-05-05 05:44 34.01144 -118.10525 4478 ft 207 kts 189°
2026-05-05 05:44 33.99784 -118.11039 4422 ft 205 kts 210°
2026-05-05 05:44 33.98692 -118.12095 4384 ft 204 kts 231°
2026-05-05 05:45 33.97984 -118.13574 4346 ft 204 kts 251°
2026-05-05 05:45 33.97721 -118.15258 4203 ft 205 kts 263°
2026-05-05 05:45 33.97554 -118.16973 3953 ft 205 kts 263°
2026-05-05 05:45 33.97389 -118.18653 3690 ft 204 kts 263°
2026-05-05 05:46 33.97220 -118.20345 3426 ft 203 kts 263°
2026-05-05 05:46 33.97050 -118.22033 3153 ft 203 kts 263°
2026-05-05 05:46 33.96881 -118.23717 2888 ft 201 kts 263°
2026-05-05 05:46 33.96717 -118.25335 2623 ft 189 kts 263°
2026-05-05 05:47 33.96564 -118.26853 2355 ft 175 kts 263°
2026-05-05 05:47 33.96422 -118.28255 2138 ft 161 kts 263°
2026-05-05 05:47 33.96294 -118.29520 1924 ft 147 kts 263°
2026-05-05 05:47 33.96172 -118.30720 1732 ft 142 kts 263°
2026-05-05 05:48 33.96055 -118.31880 1547 ft 140 kts 263°
2026-05-05 05:48 33.95937 -118.33042 1359 ft 140 kts 263°
2026-05-05 05:48 33.95819 -118.34208 1166 ft 140 kts 263°
2026-05-05 05:48 33.95700 -118.35376 972 ft 140 kts 263°
2026-05-05 05:49 33.95583 -118.36530 784 ft 139 kts 262°
2026-05-05 05:49 33.95466 -118.37677 592 ft 137 kts 263°
2026-05-05 05:49 33.95351 -118.38813 401 ft 136 kts 262°
2026-05-05 05:49 33.95238 -118.39950 209 ft 134 kts 263°
2026-05-05 05:50 33.95129 -118.41023 101 ft 126 kts 263°
2026-05-05 05:50 33.95038 -118.41894 94 ft 71 kts 262°
2026-05-05 05:50 33.94978 -118.42136 95 ft 19 kts 236°
2026-05-05 05:50 33.94894 -118.42246 95 ft 0 kts 218°
2026-05-05 05:52 33.94893 -118.42247 95 ft 2 kts 218°
2026-05-05 05:52 33.94843 -118.42279 96 ft 11 kts 195°
2026-05-05 05:52 33.94738 -118.42276 96 ft 19 kts 174°
2026-05-05 05:52 33.94690 -118.42154 94 ft 20 kts 83°
2026-05-05 05:53 33.94708 -118.41982 94 ft 21 kts 83°
2026-05-05 05:53 33.94728 -118.41776 95 ft 29 kts 83°
2026-05-05 05:53 33.94755 -118.41512 94 ft 33 kts 81°
2026-05-05 05:53 33.94759 -118.41298 94 ft 20 kts 148°
2026-05-05 05:54 33.94600 -118.41270 95 ft 27 kts 173°
2026-05-05 05:54 33.94396 -118.41240 94 ft 31 kts 173°
2026-05-05 05:54 33.94178 -118.41207 94 ft 33 kts 173°
2026-05-05 05:54 33.93950 -118.41173 93 ft 33 kts 173°
2026-05-05 05:55 33.93853 -118.41063 93 ft 19 kts 82°
2026-05-05 05:55 33.93871 -118.40876 93 ft 25 kts 83°
2026-05-05 05:55 33.93959 -118.40817 94 ft 14 kts 352°
2026-05-05 05:55 33.94033 -118.40849 95 ft 8 kts 281°
2026-05-05 05:56 33.94024 -118.40915 93 ft 7 kts 263°
2026-05-05 05:56 33.94021 -118.40945 93 ft 4 kts 263°
2026-05-05 05:56 33.94021 -118.40950 93 ft 0 kts 263°
2026-05-05 05:57 33.94014 -118.40750 94 ft 0 kts 71°